Regional Weather Roundup
Issued by NWS Midland/Odessa, TX

Skip options and go directly to product.
Home | Oldest Version | Previous Version | Current Version | All | Text Only | Save Text | Print | Product List | Glossary Off

Skip product version selection by date and time.   

317
ASUS44 KMAF 291010
RWRMAF
MIDLAND AREA WEATHER ROUNDUP
NATIONAL WEATHER SERVICE MIDLAND TX
500 AM CDT FRI AUG 29 2014

...IN SOUTHWEST TEXAS AND SOUTHEAST NEW MEXICO...

CITY           SKY/WX    TMP DP  RH WIND       PRES   REMARKS
ALPINE         PTCLDY    67  57  70 SW8       30.06F
ANDREWS        FAIR      67  65  91 S8        29.95S
ARTESIA        NOT AVBL
BIG SPRING     PTCLDY    74  68  81 SE17      29.93S
CARLSBAD       CLEAR     74  47  38 NW12      29.95R
DRYDEN           N/A     82  67  60 E12       29.87S
FORT STOCKTON  CLEAR     72  62  71 S9        29.91S
GUAD PASS      CLEAR     73  39  29 NE9       30.11S
HOBBS          CLEAR     66  63  88 E9        29.97F
MARFA          CLEAR     61  55  82 N8        30.06F
MIDLAND AIRPK  NOT AVBL
MIDLAND INTL   PTCLDY    70  64  81 SE10      29.93S
ODESSA         PTCLDY    71  62  73 SE12      29.95S
PECOS          CLEAR     69  64  85 CALM      29.88S
PRESIDIO       FAIR      75  62  63 MISG      29.90F
SEMINOLE       CLEAR     66  64  92 SE5       29.96F
SNYDER         MOCLDY    68  66  93 E6        29.94R
WINK           CLEAR     75  62  64 E8        29.89R
$$
...OTHER STATIONS IN TEXAS...

CITY           SKY/WX    TMP DP  RH WIND       PRES   REMARKS
ABILENE        CLOUDY    70  69  97 SE12      29.92R
AMARILLO       FOG       62  62 100 SW6       30.03S VSB 1/4
AUSTIN         MOCLDY    77  73  87 NE3       29.90R
BROWNSVILLE    MOCLDY    82  79  90 S8        29.77F
CORPUS CHRISTI CLOUDY    79  74  84 S10       29.80S
DALLAS FTW     CLOUDY    72  68  87 NW9       29.94S
DEL RIO        CLEAR     80  69  69 E10       29.85S
EL PASO        FAIR      71  56  58 NE5       29.98S
HOUSTON INT    PTCLDY    79  75  89 NE6       29.87F
LUBBOCK        CLOUDY    66  64  93 NE9       29.98R FOG
SAN ANGELO     LGT RAIN  74  68  81 SE12      29.90F
SAN ANTONIO    MOCLDY    78  74  87 E6        29.89S
WACO           MOCLDY    78  70  76 W7        29.93R
WICHITA FALLS  NOT AVBL
$$
...OTHER LOCATIONS IN NEW MEXICO...

CITY           SKY/WX    TMP DP  RH WIND       PRES   REMARKS
ALAMAGORDO     CLEAR     63  48  59 SE6       30.02S
ALBUQUERQUE    CLEAR     64  44  48 S5        30.15S
CANNON AFB     CLEAR     62  53  72 NE13      30.07R
CLOVIS           N/A     61  54  77 NE7       30.09R
HOLLOMAN AFB   CLEAR     62  49  62 NW5       30.00S
ROSWELL        CLEAR     70  52  52 N10       30.00R
RUIDOSO        CLEAR     59  41  51 NW8       30.23S
SANTA FE       CLEAR     54  44  69 NW5       30.20F
TRUTH OR CONSE FAIR      66  45  46 W8        30.08S
TUCUMCARI      CLOUDY    64  51  62 CALM      30.06S
$$

USA.gov is the U.S. government's official web portal to all federal, state and local government web resources and services.